FW8647 Weather Reports


time (UTC)temp
C
wind
direction
speed
KPH
gust
KPH
rain 1hr
cm
rain 24hr
cm
rain mn
cm
humidity
%
barometer
mb
20260506132428 7 203 4.8 4.8 0.00 0.36 0.36 94 1011.9
20260506131428 7 199 1.6 3.2 0.00 0.36 0.36 95 1011.9
20260506130427 7 208 0.0 0.0 0.00 0.36 0.36 96 1011.7
20260506125423 7 196 0.0 0.0 0.00 0.36 0.36 97 1011.8
20260506124418 7 201 0.0 0.0 0.00 0.36 0.36 98 1011.5
20260506123414 7 222 0.0 1.6 0.00 0.36 0.36 98 1011.5
20260506122413 7 219 0.0 0.0 0.00 0.36 0.36 99 1011.4
20260506121408 7 197 0.0 1.6 0.00 0.36 0.36 99 1011.7
20260506120403 7 206 0.0 0.0 0.00 0.36 0.36 99 1011.5
20260506115358 7 189 0.0 0.0 0.00 0.36 0.36 99 1011.4
20260506114358 7 191 0.0 0.0 0.00 0.36 0.36 99 1011.1
20260506113354 7 181 0.0 3.2 0.00 0.36 0.36 99 1011.2
20260506112354 7 124 0.0 0.0 0.00 0.36 0.36 99 1011.3
20260506111350 7 177 0.0 0.0 0.00 0.36 0.36 99 1010.8
20260506110349 7 187 0.0 0.0 0.00 0.36 0.36 99 1011.1
20260506105348 7 185 4.8 8.0 0.00 0.36 0.36 99 1010.8
20260506104344 7 192 3.2 3.2 0.00 0.36 0.36 99 1010.5
20260506103339 7 201 0.0 0.0 0.00 0.36 0.36 99 1010.4
20260506102334 7 201 3.2 4.8 0.00 0.36 0.36 99 1010.3
20260506101332 7 201 0.0 0.0 0.00 0.36 0.36 99 1010.3
20260506100329 7 201 0.0 0.0 0.00 0.36 0.36 99 1010.6
20260506095329 7 201 0.0 0.0 0.00 0.36 0.36 99 1010.6
20260506094325 7 201 0.0 0.0 0.00 0.36 0.36 99 1010.1
20260506093325 7 201 0.0 0.0 0.00 0.36 0.36 99 1009.8
20260506092321 7 201 0.0 1.6 0.00 0.36 0.36 99 1010.3
20260506091321 7 201 3.2 3.2 0.18 0.36 0.36 99 1010.6
20260506090316 7 201 0.0 0.0 0.00 0.33 0.33 99 1010.8
20260506085314 7 201 1.6 1.6 0.00 0.33 0.33 99 1011.0
20260506084314 7 201 0.0 1.6 0.13 0.33 0.33 99 1011.1
20260506083308 7 201 0.0 0.0 0.00 0.30 0.30 99 1010.8
20260506082307 7 201 4.8 4.8 0.00 0.30 0.30 99 1011.0
20260506081302 7 201 0.0 0.0 0.00 0.30 0.30 99 1011.1
20260506080301 7 202 0.0 0.0 0.00 0.30 0.30 99 1011.0
20260506073251 7 201 1.6 3.2 0.00 0.30 0.30 99 1011.1
20260506072246 7 202 0.0 0.0 0.00 0.30 0.30 99 1011.0
20260506071241 7 192 0.0 1.6 0.00 0.30 0.30 99 1010.9
20260506070241 7 195 3.2 3.2 0.00 0.30 0.30 99 1010.6
20260506062223 7 200 0.0 0.0 0.43 0.28 0.28 99 1010.7
20260506061223 -17 0.0 0.0 0.00 0.00 0.00 1010.7
20260506060218 -17 0.0 0.0 0.00 0.00 0.00 1010.8
20260506051208 -17 0.0 0.0 0.00 0.00 0.00 1011.3
20260506050203 -17 0.0 0.0 0.00 0.00 0.00 1011.6
20260506044202 -17 0.0 0.0 0.00 0.00 0.00 1011.6
20260506043158 -17 0.0 0.0 0.00 0.00 0.00 1011.9
20260506042154 7 175 1.6 4.8 0.18 0.03 0.03 98 1011.9
20260506041149 8 202 4.8 8.0 0.00 0.00 0.00 97 1011.9
20260506040149 8 202 4.8 8.0 0.00 0.00 0.00 97 1011.8
20260506035149 8 198 0.0 0.0 0.00 0.08 0.08 97 1011.8
20260506034149 8 198 0.0 0.0 0.00 0.08 0.08 97 1011.8
20260506033148 8 155 0.0 0.0 0.00 0.08 0.08 97 1011.9
20260506032148 8 159 0.0 0.0 0.00 0.08 0.08 96 1011.7
20260506031147 8 189 1.6 3.2 0.00 0.08 0.08 96 1011.7
20260506030143 8 193 0.0 0.0 0.00 0.08 0.08 95 1011.2
20260506025141 8 144 0.0 0.0 0.00 0.08 0.08 95 1011.1
20260506024141 8 175 0.0 0.0 0.00 0.08 0.08 95 1011.8
20260506023141 8 207 0.0 0.0 0.00 0.08 0.08 94 1011.7
20260506022141 8 230 0.0 0.0 0.00 0.08 0.08 94 1011.9
20260506021136 8 138 0.0 0.0 0.00 0.08 0.08 93 1011.6
20260506020137 8 197 0.0 0.0 0.00 0.08 0.08 92 1011.7
20260506015137 8 221 0.0 0.0 0.00 0.08 0.08 91 1011.7
20260506014136 8 144 0.0 0.0 0.00 0.08 0.08 88 1011.9
20260506013131 8 183 0.0 0.0 0.00 0.08 0.08 87 1011.5
20260506012129 9 161 0.0 0.0 0.00 0.08 0.08 85 1011.6
20260506011129 9 194 0.0 0.0 0.00 0.08 0.08 84 1011.4
20260506010124 9 192 0.0 0.0 0.00 0.08 0.08 84 1011.3
20260506005124 9 195 0.0 0.0 0.00 0.08 0.08 84 1011.0
20260506004124 9 210 0.0 0.0 0.00 0.08 0.08 82 1011.2
20260506003122 9 195 0.0 0.0 0.00 0.08 0.08 83 1011.0
20260506002120 9 202 0.0 0.0 0.00 0.08 0.08 83 1010.8
20260506001119 9 198 0.0 0.0 0.00 0.08 0.08 82 1010.7
20260506000119 9 204 0.0 0.0 0.00 0.08 0.08 82 1010.6
20260505235120 8 221 0.0 0.0 0.00 0.08 0.08 82 1010.6
20260505234119 9 258 0.0 0.0 0.00 0.08 0.08 82 1010.9
20260505233114 8 205 0.0 0.0 0.00 0.08 0.08 83 1011.0
20260505232114 9 196 0.0 0.0 0.00 0.08 0.08 83 1010.8
20260505231110 8 220 0.0 0.0 0.00 0.08 0.08 83 1010.9
20260505230109 9 223 0.0 0.0 0.00 0.08 0.08 83 1010.7
20260505225108 8 203 0.0 0.0 0.00 0.08 0.08 83 1010.7
20260505224107 8 222 0.0 0.0 0.00 0.08 0.08 84 1010.9
20260505223107 8 229 0.0 0.0 0.00 0.08 0.08 83 1010.9
20260505222105 8 289 0.0 1.6 0.00 0.08 0.08 84 1011.0
20260505221104 8 255 0.0 0.0 0.00 0.08 0.08 84 1010.8
20260505220100 8 234 0.0 0.0 0.00 0.08 0.08 84 1010.9
20260505215055 8 202 0.0 0.0 0.00 0.08 0.08 84 1010.9
20260505214055 8 225 0.0 0.0 0.00 0.08 0.08 84 1011.0
20260505213055 8 238 0.0 0.0 0.00 0.08 0.08 85 1011.0
20260505212055 8 284 1.6 3.2 0.00 0.08 0.08 84 1010.8
20260505211055 8 266 3.2 4.8 0.00 0.08 0.08 84 1010.8
20260505210054 8 263 6.4 9.7 0.00 0.08 0.08 83 1011.0
20260505205049 8 256 0.0 0.0 0.00 0.08 0.08 85 1010.9
20260505204044 8 282 0.0 1.6 0.00 0.08 0.08 84 1011.1
20260505203043 9 323 9.7 14.5 0.00 0.08 0.08 84 1010.9
20260505202040 9 282 0.0 3.2 0.00 0.08 0.08 85 1011.1
20260505201035 8 251 4.8 9.7 0.00 0.08 0.08 85 1010.9
20260505200036 9 263 0.0 3.2 0.00 0.08 0.08 85 1010.8
20260505195035 8 228 1.6 3.2 0.00 0.08 0.08 84 1010.7
20260505194033 9 240 4.8 8.0 0.00 0.08 0.08 84 1010.8
20260505193028 9 262 1.6 1.6 0.00 0.08 0.08 83 1010.6
20260505192024 9 254 4.8 8.0 0.30 0.08 0.08 79 1010.6
20260505191020 10 184 6.4 8.0 0.13 0.03 0.03 79 1010.6
20260505190016 10 255 0.0 0.0 0.00 0.00 0.00 75 1010.5
20260505185015 10 246 8.0 14.5 0.00 0.00 0.00 72 1010.4
20260505184015 11 282 9.7 12.9 0.00 0.00 0.00 68 1010.4
20260505183015 11 300 8.0 12.9 0.00 0.00 0.00 66 1010.2
20260505182014 12 317 8.0 11.3 0.00 0.00 0.00 65 1009.8
20260505181014 12 301 6.4 9.7 0.00 0.00 0.00 63 1009.5
20260505180014 12 193 4.8 8.0 0.00 0.00 0.00 62 1009.7
20260505175012 13 248 6.4 11.3 0.00 0.00 0.00 61 1009.5
20260505174010 13 325 6.4 14.5 0.00 0.00 0.00 62 1009.5
20260505173009 13 305 4.8 4.8 0.00 0.00 0.00 62 1008.9
20260505172008 13 183 4.8 9.7 0.00 0.00 0.00 66 1009.0
20260505171007 13 242 4.8 8.0 0.00 0.00 0.00 66 1008.8
20260505170006 13 271 6.4 9.7 0.00 0.00 0.00 67 1008.8
20260505165003 12 266 3.2 3.2 0.00 0.00 0.00 67 1008.7
20260505164004 12 223 4.8 8.0 0.00 0.00 0.00 68 1008.7
20260505163001 13 263 4.8 9.7 0.00 0.00 0.00 68 1008.8
20260505161959 13 328 8.0 11.3 0.00 0.00 0.00 68 1008.7
20260505160959 13 250 4.8 12.9 0.00 0.00 0.00 70 1008.7
20260505152957 13 336 8.0 11.3 0.00 0.00 0.00 73 1008.8
20260505151955 13 266 8.0 11.3 0.00 0.00 0.00 75 1008.0
20260505150954 13 281 6.4 9.7 0.00 0.00 0.00 75 1007.4